Location: Hauppauge
(40.8260°N, 73.2030°W)
Time: 16:06:21
(UTC-04:00)

Daily predictions for brighter satellites

Satellite Brightness Start Highest point End
(mag) Time Altitude Azimuth Time Altitude Azimuth Time Altitude Azimuth
SPOT 3 Rocket 4.0 19:16:14 10° S 19:21:20 68° WSW 19:26:30 10° NNW
Cosmos 1842 4.5 19:23:38 10° NNW 19:27:28 48° W 19:31:16 10° SSW
Cosmos 1943 Rocket 2.3 19:22:15 10° NNW 19:27:44 56° ENE 19:33:14 10° SE
Cosmos 2181 Rocket 4.1 19:24:19 10° N 19:30:24 54° ENE 19:36:23 10° SSE
Cosmos 1825 Rocket 3.5 19:29:52 10° N 19:34:16 70° E 19:38:41 10° SSE
H-2A R/B 2.8 19:34:22 10° SSE 19:37:57 51° ENE 19:41:36 10° N
Cosmos 1184 Rocket 3.6 19:35:22 10° NNW 19:38:42 57° W 19:42:01 10° S
FengYun 1-2 T 4.2 19:39:57 10° SSE 19:45:33 72° ENE 19:51:07 10° N
Cosmos 1898 Rocket 3.4 19:41:08 10° NNW 19:46:21 82° ENE 19:51:31 10° SSE
COSMOS 2406 4.2 19:42:52 10° SSE 19:47:09 22° E 19:51:28 10° NE
USA 81 4.1 19:44:19 10° N 19:49:32 60° E 19:54:44 10° SSE
Cosmos 1814 Rocket 3.9 19:45:42 10° S 19:50:48 63° ESE 19:55:54 10° NNE
Cosmos 2074 Rocket 4.3 19:45:46 10° SSE 19:51:33 43° E 19:57:21 10° NNE
Cosmos 304 Rocket 4.3 19:48:35 10° SSE 19:52:54 35° ESE 19:57:15 10° NE
Cosmos 482 Debris 3.6 19:50:33 10° NW 19:54:39 75° NE 19:56:04 25° ESE
Tiangong 2 3.5 19:53:12 10° WSW 19:55:27 18° SSW 19:57:43 10° SSE
Cosmos 1707 2.6 19:53:06 10° N 19:57:02 75° E 20:00:57 10° SSE
Cosmos 1709 Rocket 4.4 19:54:34 10° SSW 20:00:51 68° W 20:07:15 10° N
Cosmos 2150 Rocket 4.0 19:56:17 10° NNW 20:01:38 73° ENE 20:07:00 10° SSE
Cosmos 2369 Rocket 3.3 19:57:06 10° NW 20:02:26 45° WSW 20:07:44 10° S
Cosmos 990 Rocket 3.9 19:57:18 10° NNW 20:02:29 73° ENE 20:07:36 10° SSE
SL-08 ROCKET BODY 4.3 19:56:48 10° S 20:02:37 76° E 20:08:33 10° N
Cosmos 1340 Rocket 3.2 20:00:20 10° NNW 20:04:22 68° W 20:08:25 10° S
Cosmos 1758 Rocket 3.9 20:00:50 10° NNW 20:05:19 71° W 20:09:47 10° S
Resurs 1-3 4.0 20:03:09 17° SE 20:06:12 43° ENE 20:10:23 10° N
Envisat 3.4 20:05:29 18° SE 20:08:53 41° ENE 20:13:39 10° N
ALOS 3.9 20:04:45 10° SSW 20:09:02 36° W 20:13:21 10° NNW
Cosmos 389 Rocket 3.8 20:06:17 10° SSW 20:09:38 42° WNW 20:12:59 10° N
Cosmos 1356 Rocket 3.6 20:06:00 10° N 20:10:12 51° ENE 20:13:05 19° SSE
Cosmos 1656 Rocket 3.8 20:04:57 10° NNW 20:10:31 54° ENE 20:14:09 21° SE
Lacrosse 5 3.5 20:06:58 10° WNW 20:11:26 32° SW 20:15:53 10° S
BREEZE M DEB (TANK) 3.2 20:04:17 10° WNW 20:11:35 64° NNE 20:12:59 32° E
Cosmos 1726 Rocket 4.2 20:08:43 10° SSW 20:13:01 59° W 20:17:20 10° N
Resurs 01 Rocket 1.5 20:16:42 18° SSE 20:19:58 66° ENE 20:24:22 10° N
USA 186 2.8 20:25:29 26° N 20:25:29 26° N 20:26:48 10° N
Cosmos 2184 Rocket 3.9 20:18:18 10° S 20:24:33 77° E 20:30:55 10° N
In-Cosmos 22 4.2 20:21:48 10° N 20:27:25 60° ENE 20:31:00 23° SSE
CZ-2D R/B 3.4 20:26:31 16° S 20:29:30 73° WSW 20:33:19 10° NNW
GP-B 3.2 20:26:24 10° NNE 20:30:45 51° E 20:31:49 41° SE
FALCON 9 R/B 2.5 20:27:59 10° WSW 20:31:16 43° SSE 20:33:19 32° ESE
SJ-6B 4.4 20:29:11 10° SSW 20:32:54 35° W 20:36:37 10° NNW
Cosmos 1937 Rocket 4.3 20:28:49 10° NNW 20:33:57 52° WSW 20:39:02 10° S
Cosmos 1610 Rocket 4.5 20:27:46 10° S 20:34:01 64° E 20:40:21 10° NNE
Cosmos 841 Rocket 3.5 20:29:03 10° SSW 20:34:12 81° WNW 20:39:22 10° NNE
ATLAS 2AS CENTAUR R/B 4.5 20:28:44 10° NNW 20:34:46 22° NNE 20:38:20 17° ENE
Meteor 1-24 Rocket 3.8 20:32:57 10° N 20:39:00 89° W 20:44:00 15° S
USA 229 DEB 4.5 20:33:15 10° NW 20:40:12 53° WSW 20:46:57 11° S
USA 229 4.5 20:33:21 10° NW 20:40:18 53° WSW 20:46:59 12° S
YAOGAN 6 4.1 20:44:48 25° NNE 20:44:48 25° NNE 20:46:35 10° N
NOSS 3-1 (A) 4.0 20:37:19 10° NNW 20:44:56 72° NE 20:48:54 35° SE
BREEZE-M DEB (TANK) 4.2 20:47:29 10° NNW 20:47:45 12° NNW 20:47:45 12° NNW
Cosmos 1812 Rocket 3.4 20:48:56 68° ESE 20:49:11 70° E 20:53:39 10° NNE
Cosmos 1544 3.1 20:49:31 76° W 20:49:31 76° W 20:53:08 10° N
Cosmos 2084 4.0 20:48:17 10° SW 20:52:17 53° NW 20:54:36 22° NNE
NOSS 3-1 (C) 4.1 20:48:10 10° NW 20:55:52 81° WSW 21:00:23 31° SSE
Meteor 2-8 Rocket 4.5 20:53:21 10° N 20:59:30 80° W 21:03:15 25° S
MOS 1-B Rocket 4.2 20:55:10 16° S 21:00:28 71° WSW 21:06:15 10° NNW
ATLAS CENTAUR R/B 3.3 20:52:15 10° NW 21:04:00 58° WSW 21:05:46 39° S
GEOS 3 Rocket 3.7 21:00:24 10° NNE 21:05:49 78° NW 21:11:11 10° SW
Cosmos 540 Rocket 3.4 21:01:21 10° SSW 21:06:28 83° WNW 21:11:36 10° NNE
Meteor 2-19 Rocket 4.5 21:05:16 10° SSW 21:11:19 77° W 21:17:24 10° N
Cosmos 962 Rocket 4.4 21:11:22 56° SSE 21:12:40 72° E 21:19:01 10° NNE
Cosmos 1980 Rocket 4.4 21:13:40 10° NNE 21:14:44 11° NE 21:14:44 11° NE
Cosmos 1939 Rocket 4.0 21:19:29 41° WNW 21:19:29 41° WNW 21:22:26 10° NNW
BREEZE-M DEB (TANK) 3.0 21:12:13 10° WSW 21:21:11 80° NW 21:21:11 80° NW
Meteor 1-21 Rocket 4.2 21:19:47 10° N 21:25:08 75° NNE 21:25:08 75° NNE
Cosmos 2154 Rocket 4.4 21:23:04 10° SSW 21:29:11 62° W 21:35:24 10° N
COSMOS 2406 4.0 21:25:31 10° SW 21:31:02 51° WNW 21:36:39 10° NNE
Cosmos 2341 Rocket 4.0 21:34:12 67° SW 21:35:01 79° W 21:41:16 10° N
Cosmos 1125 Rocket 4.2 21:33:50 10° NNW 21:38:48 51° W 21:38:48 51° W
H-2A R/B 3.9 21:42:17 20° NNE 21:42:17 20° NNE 21:44:02 10° N
ERS-1 Rocket 4.3 21:51:22 35° NNW 21:51:22 35° NNW 21:54:16 10° NNW
ARGOS 4.3 21:57:12 37° N 21:57:12 37° N 22:00:24 10° NNW
ATLAS 2AS CENTAUR R/B 3.4 22:19:24 10° NNW 22:25:45 55° N 22:25:45 55° N
